Location: Beetenbrück
(52.8113°N, 9.5946°E)
Time: 21:17:43
(UTC+00:00)

SL-16 R/B - Pass Details

Date: 14 April 2026
Orbit: 839 x 849 km, 71.0° (Epoch: 12 May)

Event Time Altitude Azimuth Distance (km) Brightness Sun altitude
Exits shadow 21:13:16 44° 119° (ESE) 1,162 2.5 -21.8°
Maximum altitude 21:13:34 44° 110° (ESE) 1,155 2.5 -21.8°
Drops below altitude 10° 21:18:55 10° 41° (NE) 2,477 4.8 -22.2°
Sets 21:21:28 0° 35° (NE) 3,418 5.7 -22.5°
